Location: Unspecified
(0.0000°N, 0.0000°E)
Time: 02:30:54
(UTC+00:00)

CZ-3C DEB - Pass Details

Date: 20 February 2026
Orbit: 610 x 36841 km, 20.5° (Epoch: 4 October)

Event Time Altitude Azimuth Distance (km) Brightness Sun altitude
Exits shadow 04:06:01 61° 299° (WNW) 1,833 ? -31.3°
Maximum altitude 04:07:24 69° 345° (NNW) 2,011 ? -31.0°
Drops below altitude 10° 14:20:30 10° 107° (ESE) 11,315 ? 56.7°
Sets 14:26:07 0° 108° (ESE) 10,794 ? 55.4°
